CW6261 Weather Reports


Display with metric or nautical units.
time (UTC)temp
F
wind
direction
speed
MPH
gust
MPH
rain 1hr
in
rain 24hr
in
rain mn
in
humidity
%
barometer
mb
20260505163202 73 222 2.0 6.0 0.00 0.00 0.00 83 100.8
20260505162702 73 250 4.0 5.0 0.00 0.00 0.00 84 100.8
20260505162202 72 248 5.0 6.0 0.00 0.00 0.00 84 100.8
20260505161703 72 264 4.0 6.0 0.00 0.00 0.00 84 100.8
20260505161202 72 261 3.0 10.0 0.00 0.00 0.00 85 100.8
20260505160702 72 233 3.0 10.0 0.00 0.00 0.00 86 100.8
20260505153203 71 182 4.0 10.0 0.00 0.00 0.00 87 100.8
20260505152702 72 214 4.0 5.0 0.00 0.00 0.00 87 100.8
20260505152202 72 231 6.0 8.0 0.00 0.00 0.00 87 100.8
20260505151202 71 221 2.0 6.0 0.00 0.00 0.00 87 100.8
20260505150703 71 240 5.0 9.0 0.00 0.00 0.00 88 100.8
20260505150202 71 212 6.0 10.0 0.00 0.00 0.00 88 100.8
20260505140202 70 239 4.0 10.0 0.00 0.00 0.00 89 100.8
20260505130202 70 259 3.0 5.0 0.00 0.00 0.00 89 100.7
20260505124702 70 184 8.0 11.0 0.00 0.00 0.00 89 100.7
20260505124202 70 209 5.0 9.0 0.00 0.00 0.00 89 100.7
20260505123702 70 197 5.0 6.0 0.00 0.00 0.00 89 100.7
20260505123202 70 197 2.0 7.0 0.00 0.00 0.00 89 100.7
20260505122702 70 176 2.0 6.0 0.00 0.00 0.00 89 100.7
20260505122202 70 167 7.0 9.0 0.00 0.00 0.00 89 100.7
20260505121703 70 191 4.0 10.0 0.00 0.00 0.00 89 100.7
20260505121202 69 219 5.0 6.0 0.00 0.00 0.00 89 100.7
20260505120702 70 193 4.0 10.0 0.00 0.00 0.00 89 100.7
20260505120201 70 181 7.0 11.0 0.00 0.00 0.00 89 100.7
20260505115202 69 225 3.0 6.0 0.00 0.00 0.00 89 100.7
20260505114703 69 205 3.0 8.0 0.00 0.00 0.00 89 100.7
20260505114202 69 257 2.0 3.0 0.00 0.00 0.00 89 100.7
20260505113704 69 271 4.0 9.0 0.00 0.00 0.00 89 100.7
20260505113202 69 212 6.0 12.0 0.00 0.00 0.00 90 100.7
20260505112703 69 223 6.0 6.0 0.00 0.00 0.00 89 100.7
20260505112202 69 235 7.0 7.0 0.00 0.00 0.00 89 100.7
20260505111703 69 218 8.0 13.0 0.00 0.00 0.00 89 100.7
20260505111201 69 247 5.0 13.0 0.00 0.00 0.00 89 100.7
20260505110702 69 188 6.0 7.0 0.00 0.00 0.00 89 100.7
20260505110203 70 236 3.0 10.0 0.00 0.00 0.00 88 100.7
20260505102202 70 219 5.0 9.0 0.00 0.00 0.00 87 100.7
20260505101702 70 221 4.0 9.0 0.00 0.00 0.00 87 100.7
20260505101202 70 221 4.0 9.0 0.00 0.00 0.00 87 100.7
20260505100702 70 196 9.0 11.0 0.00 0.00 0.00 87 100.7
20260505100202 70 247 3.0 7.0 0.00 0.00 0.00 87 100.7
20260505095702 70 260 3.0 5.0 0.00 0.00 0.00 86 100.7
20260505095202 70 242 4.0 10.0 0.00 0.00 0.00 87 100.7
20260505094203 70 200 2.0 10.0 0.00 0.00 0.00 86 100.7
20260505093702 70 229 4.0 6.0 0.00 0.00 0.00 86 100.7
20260505092702 70 254 4.0 8.0 0.00 0.00 0.00 87 100.7
20260505092201 70 216 7.0 8.0 0.00 0.00 0.00 87 100.7
20260505091702 70 204 2.0 5.0 0.00 0.00 0.00 86 100.7
20260505091202 70 233 7.0 16.0 0.00 0.00 0.00 87 100.7
20260505090702 70 179 3.0 13.0 0.00 0.00 0.00 87 100.7
20260505090201 70 244 2.0 7.0 0.00 0.00 0.00 87 100.7
20260505085202 70 255 5.0 10.0 0.00 0.00 0.00 87 100.7
20260505084703 70 226 5.0 7.0 0.00 0.00 0.00 87 100.7
20260505084202 70 218 4.0 11.0 0.00 0.00 0.00 87 100.7
20260505083702 70 264 6.0 16.0 0.00 0.00 0.00 87 100.7
20260505083201 70 246 6.0 8.0 0.00 0.00 0.00 87 100.8
20260505082702 70 234 2.0 5.0 0.00 0.00 0.00 87 100.8
20260505082202 70 241 4.0 10.0 0.00 0.00 0.00 87 100.8
20260505081202 70 249 5.0 11.0 0.00 0.00 0.00 86 100.8
20260505080702 70 219 3.0 9.0 0.00 0.00 0.00 86 100.8
20260505080202 70 205 2.0 9.0 0.00 0.00 0.00 86 100.8
20260505075702 70 213 3.0 6.0 0.00 0.00 0.00 86 100.8
20260505075203 70 188 3.0 10.0 0.00 0.00 0.00 86 100.8
20260505074702 70 240 4.0 8.0 0.00 0.00 0.00 86 100.8
20260505074202 70 209 4.0 6.0 0.00 0.00 0.00 86 100.8
20260505073702 70 180 9.0 11.0 0.00 0.00 0.00 86 100.8
20260505072702 70 224 6.0 7.0 0.00 0.00 0.00 86 100.8
20260505072203 70 224 3.0 9.0 0.00 0.00 0.00 86 100.8
20260505071703 70 228 6.0 9.0 0.00 0.00 0.00 86 100.8
20260505071202 70 209 4.0 10.0 0.00 0.00 0.00 85 100.8
20260505070203 70 215 3.0 6.0 0.00 0.00 0.00 85 100.8
20260505065702 70 214 4.0 12.0 0.00 0.00 0.00 85 100.8
20260505065202 70 229 6.0 15.0 0.00 0.00 0.00 85 100.8
20260505064702 70 239 5.0 11.0 0.00 0.00 0.00 85 100.8
20260505063702 70 224 5.0 10.0 0.00 0.00 0.00 85 100.8
20260505062703 70 225 7.0 11.0 0.00 0.00 0.00 84 100.9
20260505061702 70 220 5.0 11.0 0.00 0.00 0.00 84 100.9
20260505061202 71 198 4.0 8.0 0.00 0.00 0.00 84 100.9
20260505060704 71 198 5.0 12.0 0.00 0.00 0.00 84 100.9
20260505060202 71 227 6.0 14.0 0.00 0.00 0.00 83 100.9
20260505055702 71 205 10.0 10.0 0.00 0.00 0.00 83 100.9
20260505055202 71 205 7.0 11.0 0.00 0.00 0.00 83 100.9
20260505054702 71 245 4.0 6.0 0.00 0.00 0.00 83 100.9
20260505054202 71 212 3.0 5.0 0.00 0.00 0.00 83 100.9
20260505053702 71 210 8.0 11.0 0.00 0.00 0.00 83 100.9
20260505053203 71 236 2.0 8.0 0.00 0.00 0.00 83 100.9
20260505052703 71 188 7.0 9.0 0.00 0.00 0.00 83 100.9
20260505052202 71 212 2.0 8.0 0.00 0.00 0.00 83 100.9
20260505051702 71 219 1.0 7.0 0.00 0.00 0.00 83 100.9
20260505051202 71 240 3.0 10.0 0.00 0.00 0.00 83 100.9
20260505050702 71 217 2.0 7.0 0.00 0.00 0.00 83 100.9
20260505041704 72 189 3.0 6.0 0.00 0.00 0.00 80 100.9
20260505041202 72 204 6.0 10.0 0.00 0.00 0.00 80 100.9
20260505040702 72 214 3.0 10.0 0.00 0.00 0.00 80 100.9
20260505035202 73 183 4.0 6.0 0.00 0.00 0.00 79 100.9
20260505034702 73 173 7.0 11.0 0.00 0.00 0.00 79 100.9
20260505034202 73 171 6.0 10.0 0.00 0.00 0.00 79 100.9
20260505033702 73 213 4.0 6.0 0.00 0.00 0.00 78 100.9
20260505033202 73 201 6.0 10.0 0.00 0.00 0.00 78 100.9
20260505032703 73 221 1.0 8.0 0.00 0.00 0.00 77 100.9
20260505031702 73 174 4.0 8.0 0.00 0.00 0.00 77 100.9
20260505030702 74 178 3.0 10.0 0.00 0.00 0.00 76 100.9
20260505030203 74 208 4.0 7.0 0.00 0.00 0.00 75 100.9
20260505025703 74 191 2.0 12.0 0.00 0.00 0.00 75 100.9
20260505024202 74 194 6.0 6.0 0.00 0.00 0.00 74 100.9
20260505023702 74 221 3.0 7.0 0.00 0.00 0.00 74 100.9
20260505023202 74 189 6.0 9.0 0.00 0.00 0.00 73 100.8
20260505022702 75 204 5.0 8.0 0.00 0.00 0.00 73 100.8
20260505022202 75 179 6.0 12.0 0.00 0.00 0.00 72 100.8
20260505021702 75 191 2.0 12.0 0.00 0.00 0.00 71 100.8
20260505021202 75 187 4.0 12.0 0.00 0.00 0.00 71 100.8
20260505020702 75 188 7.0 10.0 0.00 0.00 0.00 70 100.8
20260505020202 75 208 4.0 6.0 0.00 0.00 0.00 68 100.9
20260505015702 75 205 4.0 7.0 0.00 0.00 0.00 68 100.9
20260505015202 75 196 3.0 4.0 0.00 0.00 0.00 67 100.9
20260505014702 75 195 2.0 8.0 0.00 0.00 0.00 67 100.9
20260505014202 76 193 4.0 5.0 0.00 0.00 0.00 66 100.9
20260505013702 76 209 4.0 12.0 0.00 0.00 0.00 66 100.9
20260505013202 76 236 3.0 6.0 0.00 0.00 0.00 65 100.9
20260505012702 76 234 2.0 5.0 0.00 0.00 0.00 64 100.8
20260505012202 76 191 4.0 8.0 0.00 0.00 0.00 64 100.8
20260505011205 77 201 2.0 7.0 0.00 0.00 0.00 63 100.8
20260505010702 77 236 5.0 7.0 0.00 0.00 0.00 63 100.8
20260505010202 77 233 5.0 12.0 0.00 0.00 0.00 63 100.8
20260505005702 77 208 3.0 7.0 0.00 0.00 0.00 62 100.8
20260505005202 77 238 2.0 6.0 0.00 0.00 0.00 62 100.8
20260505004702 77 195 2.0 6.0 0.00 0.00 0.00 62 100.8
20260505004202 78 245 2.0 8.0 0.00 0.00 0.00 61 100.8
20260505003703 78 231 5.0 14.0 0.00 0.00 0.00 60 100.8
20260505003202 78 238 5.0 13.0 0.00 0.00 0.00 60 100.8
20260505002202 78 244 4.0 7.0 0.00 0.00 0.00 59 100.8
20260505001203 78 200 2.0 11.0 0.00 0.00 0.00 59 100.8
20260505000702 79 169 5.0 6.0 0.00 0.00 0.00 59 100.8
20260505000204 79 223 6.0 10.0 0.00 0.00 0.00 59 100.8
20260504235702 79 208 5.0 14.0 0.00 0.00 0.00 59 100.8
20260504235202 79 201 9.0 15.0 0.00 0.00 0.00 59 100.8
20260504234704 79 222 4.0 14.0 0.00 0.00 0.00 59 100.8
20260504234202 79 200 5.0 8.0 0.00 0.00 0.00 59 100.8
20260504233704 79 233 3.0 11.0 0.00 0.00 0.00 58 100.8
20260504233201 80 178 8.0 15.0 0.00 0.00 0.00 57 100.8
20260504232702 79 208 3.0 7.0 0.00 0.00 0.00 58 100.8
20260504232202 79 210 6.0 13.0 0.00 0.00 0.00 57 100.8
20260504231704 79 213 9.0 11.0 0.00 0.00 0.00 58 100.9
20260504231202 79 215 6.0 16.0 0.00 0.00 0.00 58 100.9
20260504230202 79 186 7.0 11.0 0.00 0.00 0.00 57 100.8
20260504225702 80 202 4.0 12.0 0.00 0.00 0.00 56 100.8
20260504224702 79 190 3.0 12.0 0.00 0.00 0.00 56 100.8
20260504224202 80 233 4.0 10.0 0.00 0.00 0.00 56 100.8
20260504223202 81 199 7.0 10.0 0.00 0.00 0.00 55 100.8
20260504222702 80 194 4.0 8.0 0.00 0.00 0.00 56 100.9
20260504222203 80 211 6.0 11.0 0.00 0.00 0.00 55 100.9
20260504221203 80 214 6.0 10.0 0.00 0.00 0.00 56 100.9
20260504220702 80 208 4.0 12.0 0.00 0.00 0.00 56 100.9
20260504220203 81 245 5.0 12.0 0.00 0.00 0.00 55 100.8
20260504215702 81 183 8.0 13.0 0.00 0.00 0.00 55 100.8
20260504215203 81 241 5.0 8.0 0.00 0.00 0.00 56 100.8
20260504214702 80 238 5.0 13.0 0.00 0.00 0.00 56 100.9
20260504214202 80 210 7.0 11.0 0.00 0.00 0.00 56 100.9
20260504213703 80 163 2.0 15.0 0.00 0.00 0.00 56 100.9
20260504213203 80 186 4.0 9.0 0.00 0.00 0.00 56 100.9
20260504212702 80 212 10.0 11.0 0.00 0.00 0.00 56 101.0
20260504212202 80 212 4.0 9.0 0.00 0.00 0.00 56 101.0
20260504211703 80 224 11.0 12.0 0.00 0.00 0.00 55 101.0
20260504211202 80 187 8.0 9.0 0.00 0.00 0.00 55 101.0
20260504210702 80 226 6.0 11.0 0.00 0.00 0.00 56 101.0
20260504205702 80 194 4.0 11.0 0.00 0.00 0.00 55 100.9
20260504205202 79 217 4.0 12.0 0.00 0.00 0.00 56 100.9
20260504204702 79 209 5.0 13.0 0.00 0.00 0.00 57 101.0
20260504203704 79 183 6.0 15.0 0.00 0.00 0.00 57 101.0
20260504203202 78 222 5.0 11.0 0.00 0.00 0.00 58 101.0
20260504202702 79 212 4.0 13.0 0.00 0.00 0.00 56 101.0
20260504202202 78 251 3.0 10.0 0.00 0.00 0.00 57 101.0
20260504201702 80 191 8.0 15.0 0.00 0.00 0.00 55 101.0
20260504200702 79 221 11.0 12.0 0.00 0.00 0.00 56 101.0
20260504200202 79 249 4.0 7.0 0.00 0.00 0.00 56 101.0
20260504195703 79 226 5.0 6.0 0.00 0.00 0.00 56 101.0
20260504194702 79 161 8.0 12.0 0.00 0.00 0.00 57 101.0
20260504193202 78 159 2.0 11.0 0.00 0.00 0.00 57 101.0
20260504192702 78 225 7.0 8.0 0.00 0.00 0.00 58 101.1
20260504192202 78 205 4.0 12.0 0.00 0.00 0.00 57 101.1
20260504191703 78 243 4.0 8.0 0.00 0.00 0.00 58 101.1
20260504190702 78 202 6.0 17.0 0.00 0.00 0.00 58 101.1
20260504190203 77 218 2.0 13.0 0.00 0.00 0.00 59 101.1
20260504185702 77 188 5.0 16.0 0.00 0.00 0.00 59 101.1
20260504185203 77 206 5.0 10.0 0.00 0.00 0.00 58 101.1
20260504184702 77 208 4.0 8.0 0.00 0.00 0.00 58 101.1
20260504184202 77 228 3.0 12.0 0.00 0.00 0.00 58 101.1
20260504183703 76 236 4.0 10.0 0.00 0.00 0.00 61 101.1
20260504183202 76 190 7.0 13.0 0.00 0.00 0.00 60 101.1
20260504181703 76 155 4.0 6.0 0.00 0.00 0.00 60 101.2
20260504181202 76 239 2.0 9.0 0.00 0.00 0.00 61 101.2
20260504180702 76 189 6.0 10.0 0.00 0.00 0.00 61 101.2
20260504175703 74 234 3.0 9.0 0.00 0.00 0.00 63 101.2
20260504175202 73 249 4.0 7.0 0.00 0.00 0.00 65 101.2
20260504174703 74 240 3.0 11.0 0.00 0.00 0.00 64 101.2
20260504174203 74 243 1.0 8.0 0.00 0.00 0.00 63 101.2
20260504173703 74 240 3.0 11.0 0.00 0.00 0.00 64 101.2
20260504173202 73 236 3.0 11.0 0.00 0.00 0.00 66 101.2
20260504172703 72 263 3.0 10.0 0.00 0.00 0.00 66 101.3
20260504172203 73 279 2.0 6.0 0.00 0.00 0.00 66 101.3
20260504171702 73 232 2.0 9.0 0.00 0.00 0.00 65 101.3
20260504171202 72 252 5.0 8.0 0.00 0.00 0.00 67 101.3
20260504170703 72 243 6.0 11.0 0.00 0.00 0.00 66 101.3
20260504170202 72 210 5.0 8.0 0.00 0.00 0.00 66 101.3